| time (UTC) | temp F | wind direction | speed MPH | gust MPH | rain 1hr in | rain 24hr in | rain mn in | humidity % | barometer mb |
| 20260506182517 | 58 | 203 | 4.0 | 14.0 | 0.04 | 0.04 | 0.04 | 90 | 1009.0 |
| 20260506182011 | 58 | 115 | 6.0 | 16.0 | 0.04 | 0.04 | 0.04 | 90 | 1009.2 |
| 20260506181505 | 58 | 249 | 6.0 | 17.0 | 0.04 | 0.04 | 0.04 | 89 | 1009.2 |
| 20260506180959 | 58 | 219 | 6.0 | 17.0 | 0.03 | 0.03 | 0.03 | 89 | 1009.1 |
| 20260506180453 | 57 | 228 | 5.0 | 13.0 | 0.03 | 0.03 | 0.03 | 89 | 1009.3 |
| 20260506175947 | 57 | 225 | 5.0 | 16.0 | 0.02 | 0.02 | 0.03 | 88 | 1009.4 |
| 20260506175444 | 58 | 209 | 4.0 | 17.0 | 0.02 | 0.02 | 0.02 | 88 | 1009.4 |
| 20260506175439 | 58 | 211 | 4.0 | 17.0 | 0.01 | 0.01 | 0.01 | 87 | 1009.5 |
| 20260506174429 | 58 | 148 | 4.0 | 13.0 | 0.01 | 0.01 | 0.01 | 87 | 1009.6 |
| 20260506173923 | 58 | 163 | 5.0 | 15.0 | 0.00 | 0.00 | 0.00 | 86 | 1009.6 |
| 20260506173417 | 58 | 227 | 6.0 | 15.0 | 0.00 | 0.00 | 0.00 | 86 | 1009.8 |
| 20260506172911 | 58 | 173 | 6.0 | 17.0 | 0.00 | 0.00 | 0.00 | 86 | 1009.9 |
| 20260506172404 | 58 | 197 | 5.0 | 17.0 | 0.00 | 0.00 | 0.00 | 85 | 1009.9 |
| 20260506171859 | 58 | 233 | 5.0 | 15.0 | 0.00 | 0.00 | 0.00 | 85 | 1010.0 |
| 20260506171353 | 59 | 215 | 5.0 | 18.0 | 0.00 | 0.00 | 0.00 | 85 | 1010.0 |
| 20260506170847 | 59 | 236 | 7.0 | 18.0 | 0.00 | 0.00 | 0.00 | 84 | 1010.2 |
| 20260506170347 | 59 | 228 | 6.0 | 15.0 | 0.00 | 0.00 | 0.00 | 84 | 1010.0 |
| 20260506165847 | 59 | 241 | 5.0 | 19.0 | 0.00 | 0.00 | 0.00 | 83 | 1010.1 |
| 20260506165346 | 59 | 163 | 5.0 | 19.0 | 0.00 | 0.00 | 0.00 | 83 | 1010.1 |
| 20260506164846 | 60 | 228 | 4.0 | 15.0 | 0.00 | 0.00 | 0.00 | 83 | 1010.2 |
| 20260506164345 | 60 | 213 | 5.0 | 15.0 | 0.00 | 0.00 | 0.00 | 83 | 1010.3 |
| 20260506163846 | 60 | 225 | 6.0 | 14.0 | 0.00 | 0.00 | 0.00 | 83 | 1010.3 |
| 20260506163617 | 60 | 182 | 6.0 | 18.0 | 0.00 | 0.00 | 0.00 | 83 | 1010.3 |
| 20260506163116 | 60 | 265 | 5.0 | 18.0 | 0.00 | 0.00 | 0.00 | 83 | 1010.2 |
| 20260506162345 | 60 | 227 | 5.0 | 14.0 | 0.00 | 0.00 | 0.00 | 83 | 1010.4 |
| 20260506161848 | 60 | 170 | 6.0 | 15.0 | 0.00 | 0.00 | 0.00 | 82 | 1010.2 |
| 20260506161614 | 60 | 144 | 6.0 | 16.0 | 0.00 | 0.00 | 0.00 | 82 | 1010.4 |
| 20260506160842 | 60 | 262 | 5.0 | 16.0 | 0.00 | 0.00 | 0.00 | 81 | 1010.6 |
| 20260506160613 | 60 | 222 | 5.0 | 17.0 | 0.00 | 0.00 | 0.00 | 81 | 1010.5 |
| 20260506155842 | 61 | 240 | 5.0 | 17.0 | 0.00 | 0.00 | 0.00 | 81 | 1010.6 |
| 20260506155612 | 61 | 178 | 5.0 | 15.0 | 0.00 | 0.00 | 0.00 | 81 | 1010.6 |
| 20260506154842 | 61 | 220 | 6.0 | 18.0 | 0.00 | 0.00 | 0.00 | 82 | 1010.6 |
| 20260506154343 | 61 | 207 | 7.0 | 18.0 | 0.00 | 0.00 | 0.00 | 81 | 1010.6 |
| 20260506153837 | 61 | 209 | 6.0 | 17.0 | 0.00 | 0.00 | 0.00 | 81 | 1010.7 |
| 20260506153331 | 61 | 249 | 6.0 | 15.0 | 0.00 | 0.00 | 0.00 | 81 | 1010.9 |
| 20260506152825 | 61 | 187 | 4.0 | 15.0 | 0.00 | 0.00 | 0.00 | 81 | 1011.0 |
| 20260506152319 | 61 | 200 | 5.0 | 17.0 | 0.00 | 0.00 | 0.00 | 81 | 1011.1 |
| 20260506152044 | 62 | 59 | 6.0 | 17.0 | 0.00 | 0.00 | 0.00 | 81 | 1011.0 |
| 20260506151306 | 62 | 163 | 5.0 | 16.0 | 0.00 | 0.00 | 0.00 | 81 | 1010.8 |
| 20260506150800 | 62 | 228 | 5.0 | 15.0 | 0.00 | 0.00 | 0.00 | 82 | 1010.8 |
| 20260506150304 | 62 | 224 | 6.0 | 16.0 | 0.00 | 0.00 | 0.00 | 81 | 1010.8 |
| 20260506145749 | 62 | 232 | 5.0 | 17.0 | 0.00 | 0.00 | 0.00 | 80 | 1010.9 |
| 20260506145243 | 62 | 287 | 5.0 | 17.0 | 0.00 | 0.00 | 0.00 | 79 | 1010.8 |
| 20260506144736 | 62 | 174 | 6.0 | 14.0 | 0.00 | 0.00 | 0.00 | 78 | 1010.8 |
| 20260506144230 | 63 | 224 | 5.0 | 16.0 | 0.00 | 0.00 | 0.00 | 77 | 1011.1 |
| 20260506143725 | 63 | 231 | 4.0 | 16.0 | 0.00 | 0.00 | 0.00 | 77 | 1011.2 |
| 20260506143219 | 64 | 281 | 4.0 | 11.0 | 0.00 | 0.00 | 0.00 | 77 | 1011.4 |
| 20260506142719 | 64 | 209 | 4.0 | 11.0 | 0.00 | 0.00 | 0.00 | 77 | 1011.3 |
| 20260506142220 | 64 | 198 | 4.0 | 11.0 | 0.00 | 0.00 | 0.00 | 77 | 1011.2 |
| 20260506141717 | 64 | 190 | 3.0 | 14.0 | 0.00 | 0.00 | 0.00 | 78 | 1011.3 |
| 20260506141218 | 64 | 209 | 3.0 | 14.0 | 0.00 | 0.00 | 0.00 | 78 | 1011.3 |
| 20260506140718 | 64 | 249 | 4.0 | 12.0 | 0.00 | 0.00 | 0.00 | 79 | 1011.2 |
| 20260506140449 | 63 | 227 | 5.0 | 14.0 | 0.00 | 0.00 | 0.00 | 81 | 1011.3 |
| 20260506135719 | 62 | 152 | 4.0 | 14.0 | 0.00 | 0.00 | 0.00 | 81 | 1011.4 |
| 20260506135219 | 62 | 263 | 4.0 | 13.0 | 0.00 | 0.00 | 0.00 | 80 | 1011.4 |
| 20260506134717 | 62 | 167 | 5.0 | 12.0 | 0.00 | 0.00 | 0.00 | 79 | 1011.4 |
| 20260506134216 | 63 | 191 | 5.0 | 13.0 | 0.00 | 0.00 | 0.00 | 80 | 1011.6 |
| 20260506133716 | 63 | 163 | 6.0 | 17.0 | 0.00 | 0.00 | 0.00 | 80 | 1011.6 |
| 20260506133216 | 63 | 156 | 5.0 | 17.0 | 0.00 | 0.00 | 0.00 | 81 | 1011.5 |
| 20260506132716 | 62 | 208 | 4.0 | 15.0 | 0.00 | 0.00 | 0.00 | 82 | 1011.4 |
| 20260506132217 | 62 | 149 | 5.0 | 14.0 | 0.00 | 0.00 | 0.00 | 83 | 1011.5 |
| 20260506131716 | 61 | 208 | 4.0 | 14.0 | 0.00 | 0.00 | 0.00 | 83 | 1011.4 |
| 20260506131217 | 61 | 165 | 3.0 | 13.0 | 0.00 | 0.00 | 0.00 | 83 | 1011.3 |
| 20260506130717 | 61 | 216 | 3.0 | 11.0 | 0.00 | 0.00 | 0.00 | 82 | 1011.4 |
| 20260506130211 | 61 | 227 | 4.0 | 11.0 | 0.00 | 0.00 | 0.00 | 82 | 1011.5 |
| 20260506125705 | 61 | 198 | 5.0 | 16.0 | 0.00 | 0.00 | 0.00 | 82 | 1011.5 |
| 20260506125159 | 61 | 168 | 5.0 | 16.0 | 0.00 | 0.00 | 0.00 | 82 | 1011.6 |
| 20260506124652 | 62 | 158 | 3.0 | 14.0 | 0.00 | 0.00 | 0.00 | 83 | 1011.8 |
| 20260506124147 | 61 | 237 | 4.0 | 15.0 | 0.00 | 0.00 | 0.00 | 83 | 1011.6 |
| 20260506123641 | 61 | 186 | 5.0 | 15.0 | 0.00 | 0.00 | 0.00 | 83 | 1011.6 |
| 20260506123134 | 61 | 216 | 5.0 | 12.0 | 0.00 | 0.00 | 0.00 | 84 | 1011.7 |
| 20260506122632 | 61 | 163 | 5.0 | 11.0 | 0.00 | 0.00 | 0.00 | 84 | 1011.8 |
| 20260506122131 | 61 | 220 | 5.0 | 13.0 | 0.00 | 0.00 | 0.00 | 85 | 1012.0 |
| 20260506121629 | 61 | 146 | 4.0 | 13.0 | 0.00 | 0.00 | 0.00 | 86 | 1012.0 |
| 20260506121131 | 61 | 214 | 5.0 | 14.0 | 0.00 | 0.00 | 0.00 | 87 | 1011.8 |
| 20260506120630 | 61 | 206 | 4.0 | 14.0 | 0.00 | 0.00 | 0.00 | 89 | 1011.8 |
| 20260506120133 | 60 | 247 | 3.0 | 13.0 | 0.00 | 0.00 | 0.00 | 91 | 1011.7 |
| 20260506120129 | 60 | 156 | 3.0 | 14.0 | 0.00 | 0.00 | 0.00 | 91 | 1011.8 |
| 20260506115131 | 59 | 159 | 4.0 | 13.0 | 0.00 | 0.00 | 0.00 | 92 | 1011.6 |
| 20260506114630 | 59 | 196 | 4.0 | 12.0 | 0.00 | 0.00 | 0.00 | 92 | 1011.7 |
| 20260506114130 | 58 | 211 | 4.0 | 11.0 | 0.00 | 0.00 | 0.00 | 92 | 1011.6 |
| 20260506113630 | 58 | 254 | 3.0 | 12.0 | 0.00 | 0.00 | 0.00 | 92 | 1011.5 |
| 20260506113130 | 58 | 258 | 4.0 | 12.0 | 0.00 | 0.00 | 0.00 | 92 | 1011.6 |
| 20260506112630 | 57 | 181 | 4.0 | 12.0 | 0.00 | 0.00 | 0.00 | 92 | 1011.7 |
| 20260506112401 | 57 | 225 | 4.0 | 12.0 | 0.00 | 0.00 | 0.00 | 92 | 1011.8 |
| 20260506111632 | 57 | 257 | 4.0 | 15.0 | 0.00 | 0.00 | 0.00 | 92 | 1011.8 |
| 20260506111130 | 57 | 219 | 4.0 | 15.0 | 0.00 | 0.00 | 0.00 | 92 | 1011.7 |
| 20260506110630 | 57 | 272 | 5.0 | 12.0 | 0.00 | 0.00 | 0.00 | 92 | 1011.8 |
| 20260506110124 | 56 | 185 | 5.0 | 12.0 | 0.00 | 0.00 | 0.00 | 92 | 1011.6 |
| 20260506105618 | 56 | 230 | 4.0 | 16.0 | 0.00 | 0.00 | 0.00 | 92 | 1011.6 |
| 20260506105112 | 56 | 178 | 4.0 | 16.0 | 0.00 | 0.00 | 0.00 | 92 | 1011.5 |
| 20260506104606 | 56 | 184 | 4.0 | 12.0 | 0.00 | 0.00 | 0.00 | 92 | 1011.4 |
| 20260506104101 | 56 | 205 | 4.0 | 14.0 | 0.00 | 0.00 | 0.00 | 92 | 1011.3 |
| 20260506103557 | 56 | 215 | 3.0 | 14.0 | 0.00 | 0.00 | 0.00 | 92 | 1011.4 |
| 20260506103551 | 56 | 320 | 3.0 | 11.0 | 0.00 | 0.00 | 0.00 | 91 | 1011.5 |
| 20260506102547 | 56 | 196 | 4.0 | 11.0 | 0.00 | 0.00 | 0.00 | 91 | 1011.4 |
| 20260506102047 | 56 | 148 | 4.0 | 11.0 | 0.00 | 0.00 | 0.00 | 91 | 1011.4 |
| 20260506101818 | 56 | 170 | 4.0 | 13.0 | 0.00 | 0.00 | 0.00 | 91 | 1011.3 |
| 20260506101044 | 56 | 214 | 4.0 | 13.0 | 0.00 | 0.00 | 0.00 | 91 | 1011.4 |
| 20260506100543 | 56 | 199 | 4.0 | 18.0 | 0.00 | 0.00 | 0.00 | 91 | 1011.4 |
| 20260506100314 | 56 | 199 | 3.0 | 18.0 | 0.00 | 0.00 | 0.00 | 91 | 1011.4 |
| 20260506095544 | 56 | 355 | 3.0 | 14.0 | 0.00 | 0.00 | 0.00 | 91 | 1011.5 |
| 20260506095043 | 56 | 137 | 4.0 | 14.0 | 0.00 | 0.00 | 0.00 | 91 | 1011.4 |
| 20260506094544 | 56 | 261 | 4.0 | 12.0 | 0.00 | 0.00 | 0.00 | 91 | 1011.3 |
| 20260506094043 | 56 | 213 | 3.0 | 12.0 | 0.00 | 0.00 | 0.00 | 91 | 1011.3 |
| 20260506093544 | 56 | 182 | 3.0 | 9.0 | 0.00 | 0.00 | 0.00 | 91 | 1011.5 |
| 20260506093045 | 56 | 193 | 2.0 | 8.0 | 0.00 | 0.00 | 0.00 | 91 | 1011.5 |
| 20260506092545 | 56 | 214 | 2.0 | 8.0 | 0.00 | 0.00 | 0.00 | 91 | 1011.5 |
| 20260506092313 | 56 | 231 | 3.0 | 8.0 | 0.00 | 0.00 | 0.00 | 91 | 1011.5 |
| 20260506091542 | 56 | 243 | 3.0 | 9.0 | 0.00 | 0.00 | 0.00 | 90 | 1011.5 |
| 20260506091042 | 56 | 257 | 2.0 | 9.0 | 0.00 | 0.00 | 0.00 | 90 | 1011.6 |
| 20260506090545 | 56 | 237 | 3.0 | 14.0 | 0.00 | 0.00 | 0.00 | 90 | 1011.6 |
| 20260506090038 | 56 | 223 | 4.0 | 14.0 | 0.00 | 0.00 | 0.00 | 90 | 1011.5 |
| 20260506085532 | 56 | 139 | 5.0 | 15.0 | 0.00 | 0.00 | 0.00 | 90 | 1011.6 |
| 20260506085026 | 56 | 207 | 5.0 | 15.0 | 0.00 | 0.00 | 0.00 | 90 | 1011.5 |
| 20260506084525 | 56 | 144 | 4.0 | 14.0 | 0.00 | 0.00 | 0.00 | 90 | 1011.5 |
| 20260506084520 | 56 | 246 | 4.0 | 14.0 | 0.00 | 0.00 | 0.00 | 90 | 1011.5 |
| 20260506083516 | 56 | 154 | 4.0 | 14.0 | 0.00 | 0.00 | 0.00 | 90 | 1011.5 |
| 20260506083016 | 56 | 248 | 4.0 | 14.0 | 0.00 | 0.00 | 0.00 | 90 | 1011.8 |
| 20260506082516 | 56 | 205 | 4.0 | 14.0 | 0.00 | 0.00 | 0.00 | 90 | 1011.8 |
| 20260506082016 | 56 | 227 | 4.0 | 12.0 | 0.00 | 0.00 | 0.00 | 90 | 1011.7 |
| 20260506081517 | 56 | 28 | 4.0 | 11.0 | 0.00 | 0.00 | 0.00 | 90 | 1011.8 |
| 20260506081016 | 56 | 194 | 4.0 | 11.0 | 0.00 | 0.00 | 0.00 | 90 | 1011.8 |
| 20260506080515 | 56 | 251 | 3.0 | 14.0 | 0.00 | 0.00 | 0.00 | 90 | 1011.9 |
| 20260506073516 | 56 | 270 | 3.0 | 11.0 | 0.00 | 0.00 | 0.00 | 89 | 1012.0 |
| 20260506073017 | 56 | 235 | 3.0 | 12.0 | 0.00 | 0.00 | 0.00 | 89 | 1012.1 |
| 20260506073013 | 56 | 222 | 3.0 | 12.0 | 0.00 | 0.00 | 0.00 | 89 | 1012.1 |
| 20260506072008 | 56 | 219 | 3.0 | 11.0 | 0.00 | 0.00 | 0.00 | 88 | 1012.2 |
| 20260506071502 | 56 | 300 | 3.0 | 10.0 | 0.00 | 0.00 | 0.00 | 88 | 1012.2 |
| 20260506070956 | 56 | 192 | 3.0 | 11.0 | 0.00 | 0.00 | 0.00 | 88 | 1012.3 |
| 20260506070451 | 56 | 201 | 3.0 | 11.0 | 0.00 | 0.00 | 0.00 | 88 | 1012.2 |
| 20260506062436 | 57 | 192 | 4.0 | 11.0 | 0.00 | 0.00 | 0.00 | 88 | 1012.0 |
| 20260506061935 | 57 | 325 | 4.0 | 11.0 | 0.00 | 0.00 | 0.00 | 88 | 1012.1 |
| 20260506061435 | 57 | 213 | 4.0 | 10.0 | 0.00 | 0.00 | 0.00 | 87 | 1011.9 |
| 20260506060935 | 57 | 226 | 3.0 | 12.0 | 0.00 | 0.00 | 0.00 | 87 | 1011.9 |
| 20260506060436 | 57 | 167 | 3.0 | 12.0 | 0.00 | 0.00 | 0.00 | 87 | 1011.9 |
| 20260506051142 | 58 | 198 | 6.0 | 15.0 | 0.00 | 0.00 | 0.00 | 87 | 1012.1 |
| 20260506050405 | 58 | 159 | 5.0 | 15.0 | 0.00 | 0.00 | 0.00 | 87 | 1012.1 |
| 20260506044847 | 57 | 230 | 5.0 | 15.0 | 0.00 | 0.00 | 0.00 | 87 | 1012.1 |
| 20260506044340 | 57 | 247 | 5.0 | 15.0 | 0.00 | 0.00 | 0.00 | 87 | 1012.1 |
| 20260506043834 | 57 | 163 | 5.0 | 15.0 | 0.00 | 0.00 | 0.00 | 87 | 1012.1 |
| 20260506043328 | 57 | 157 | 5.0 | 21.0 | 0.00 | 0.00 | 0.00 | 87 | 1012.1 |
| 20260506042822 | 57 | 205 | 5.0 | 21.0 | 0.00 | 0.00 | 0.00 | 87 | 1012.1 |
| 20260506042317 | 57 | 257 | 4.0 | 15.0 | 0.00 | 0.00 | 0.00 | 87 | 1012.2 |
| 20260506041811 | 57 | 233 | 5.0 | 19.0 | 0.00 | 0.00 | 0.00 | 87 | 1012.3 |
| 20260506041536 | 57 | 236 | 5.0 | 19.0 | 0.00 | 0.00 | 0.00 | 87 | 1012.3 |
| 20260506040805 | 57 | 147 | 3.0 | 16.0 | 0.00 | 0.00 | 0.00 | 87 | 1012.3 |
| 20260506040306 | 57 | 227 | 3.0 | 14.0 | 0.00 | 0.00 | 0.00 | 86 | 1012.3 |
| 20260506035805 | 57 | 279 | 3.0 | 14.0 | 0.00 | 0.00 | 0.00 | 86 | 1012.3 |
| 20260506035306 | 57 | 189 | 4.0 | 11.0 | 0.00 | 0.00 | 0.00 | 86 | 1012.5 |
| 20260506034804 | 57 | 225 | 4.0 | 12.0 | 0.00 | 0.00 | 0.00 | 86 | 1012.4 |
| 20260506034541 | 57 | 231 | 5.0 | 15.0 | 0.00 | 0.00 | 0.00 | 86 | 1012.5 |
| 20260506034306 | 57 | 225 | 5.0 | 15.0 | 0.00 | 0.00 | 0.00 | 86 | 1012.4 |
| 20260506033304 | 57 | 232 | 5.0 | 12.0 | 0.00 | 0.00 | 0.00 | 86 | 1012.4 |
| 20260506032805 | 57 | 259 | 5.0 | 11.0 | 0.00 | 0.00 | 0.00 | 86 | 1012.3 |
| 20260506032306 | 57 | 232 | 4.0 | 13.0 | 0.00 | 0.00 | 0.00 | 86 | 1012.3 |
| 20260506031804 | 57 | 235 | 3.0 | 13.0 | 0.00 | 0.00 | 0.00 | 86 | 1012.2 |
| 20260506031534 | 57 | 221 | 3.0 | 13.0 | 0.00 | 0.00 | 0.00 | 85 | 1012.3 |
| 20260506030804 | 57 | 212 | 4.0 | 14.0 | 0.00 | 0.00 | 0.00 | 85 | 1012.5 |
| 20260506030303 | 57 | 211 | 5.0 | 14.0 | 0.00 | 0.00 | 0.00 | 85 | 1012.5 |
| 20260506025805 | 57 | 207 | 4.0 | 16.0 | 0.00 | 0.00 | 0.00 | 85 | 1012.6 |
| 20260506025536 | 57 | 207 | 3.0 | 16.0 | 0.00 | 0.00 | 0.00 | 85 | 1012.5 |
| 20260506025030 | 57 | 161 | 3.0 | 9.0 | 0.00 | 0.00 | 0.00 | 85 | 1012.4 |
| 20260506024527 | 57 | 232 | 4.0 | 12.0 | 0.00 | 0.00 | 0.00 | 85 | 1012.5 |
| 20260506024249 | 57 | 184 | 4.0 | 12.0 | 0.00 | 0.00 | 0.00 | 85 | 1012.5 |
| 20260506023512 | 57 | 180 | 4.0 | 12.0 | 0.00 | 0.00 | 0.00 | 85 | 1012.5 |
| 20260506022735 | 57 | 198 | 5.0 | 12.0 | 0.00 | 0.00 | 0.00 | 85 | 1012.4 |
| 20260506022500 | 58 | 232 | 4.0 | 11.0 | 0.00 | 0.00 | 0.00 | 84 | 1012.5 |
| 20260506021723 | 57 | 221 | 4.0 | 13.0 | 0.00 | 0.00 | 0.00 | 84 | 1012.4 |
| 20260506021216 | 58 | 133 | 3.0 | 13.0 | 0.00 | 0.00 | 0.00 | 84 | 1012.4 |
| 20260506020711 | 58 | 281 | 3.0 | 13.0 | 0.00 | 0.00 | 0.00 | 84 | 1012.4 |
| 20260506020437 | 58 | 234 | 4.0 | 13.0 | 0.00 | 0.00 | 0.00 | 84 | 1012.3 |
| 20260506015929 | 58 | 257 | 4.0 | 14.0 | 0.00 | 0.00 | 0.00 | 83 | 1012.4 |
| 20260506015159 | 58 | 153 | 4.0 | 14.0 | 0.00 | 0.00 | 0.00 | 83 | 1012.3 |
| 20260506014659 | 58 | 295 | 4.0 | 10.0 | 0.00 | 0.00 | 0.00 | 83 | 1012.3 |
| 20260506014159 | 58 | 213 | 4.0 | 9.0 | 0.00 | 0.00 | 0.00 | 83 | 1012.2 |
| 20260506013659 | 58 | 209 | 4.0 | 15.0 | 0.00 | 0.00 | 0.00 | 83 | 1012.2 |
| 20260506013159 | 58 | 186 | 4.0 | 15.0 | 0.00 | 0.00 | 0.00 | 82 | 1012.2 |
| 20260506012659 | 58 | 200 | 5.0 | 14.0 | 0.00 | 0.00 | 0.00 | 82 | 1012.1 |
| 20260506012159 | 58 | 265 | 5.0 | 14.0 | 0.00 | 0.00 | 0.00 | 82 | 1012.1 |
| 20260506011659 | 58 | 299 | 5.0 | 20.0 | 0.00 | 0.00 | 0.00 | 82 | 1012.0 |
| 20260506011158 | 58 | 227 | 6.0 | 20.0 | 0.00 | 0.00 | 0.00 | 82 | 1011.9 |
| 20260506010657 | 58 | 238 | 5.0 | 18.0 | 0.00 | 0.00 | 0.00 | 82 | 1011.8 |
| 20260506010156 | 58 | 223 | 5.0 | 18.0 | 0.00 | 0.00 | 0.00 | 82 | 1011.9 |
| 20260506005656 | 58 | 239 | 5.0 | 14.0 | 0.00 | 0.00 | 0.00 | 82 | 1011.7 |
| 20260506005154 | 58 | 199 | 6.0 | 16.0 | 0.00 | 0.00 | 0.00 | 81 | 1011.7 |
| 20260506004924 | 58 | 228 | 6.0 | 16.0 | 0.00 | 0.00 | 0.00 | 81 | 1011.6 |
| 20260506004153 | 58 | 208 | 7.0 | 15.0 | 0.00 | 0.00 | 0.00 | 81 | 1011.4 |
| 20260506003656 | 58 | 198 | 8.0 | 25.0 | 0.00 | 0.00 | 0.00 | 81 | 1011.5 |
| 20260506003428 | 59 | 222 | 7.0 | 24.0 | 0.00 | 0.00 | 0.00 | 81 | 1011.3 |
| 20260506002650 | 59 | 238 | 7.0 | 21.0 | 0.00 | 0.00 | 0.00 | 81 | 1011.3 |
| 20260506002144 | 59 | 156 | 7.0 | 20.0 | 0.00 | 0.00 | 0.00 | 81 | 1011.3 |
| 20260506001643 | 59 | 238 | 6.0 | 19.0 | 0.00 | 0.00 | 0.00 | 80 | 1011.1 |
| 20260506001638 | 59 | 183 | 7.0 | 20.0 | 0.00 | 0.00 | 0.00 | 80 | 1011.3 |
| 20260506001127 | 59 | 208 | 7.0 | 18.0 | 0.00 | 0.00 | 0.00 | 80 | 1011.0 |
| 20260506000120 | 59 | 208 | 8.0 | 22.0 | 0.00 | 0.00 | 0.00 | 80 | 1011.0 |
| 20260505235614 | 59 | 200 | 7.0 | 22.0 | 0.00 | 0.00 | 0.00 | 80 | 1011.0 |
| 20260505235108 | 59 | 253 | 6.0 | 20.0 | 0.00 | 0.00 | 0.00 | 80 | 1010.8 |
| 20260505234602 | 59 | 235 | 7.0 | 23.0 | 0.00 | 0.00 | 0.00 | 80 | 1010.8 |
| 20260505234056 | 59 | 161 | 7.0 | 23.0 | 0.00 | 0.00 | 0.00 | 80 | 1010.4 |
| 20260505233550 | 59 | 175 | 7.0 | 17.0 | 0.00 | 0.00 | 0.00 | 80 | 1010.4 |
| 20260505233044 | 59 | 248 | 7.0 | 23.0 | 0.00 | 0.00 | 0.00 | 79 | 1010.4 |
| 20260505232537 | 59 | 190 | 7.0 | 22.0 | 0.00 | 0.00 | 0.00 | 79 | 1010.4 |
| 20260505232033 | 60 | 173 | 7.0 | 22.0 | 0.00 | 0.00 | 0.00 | 79 | 1010.2 |
| 20260505231804 | 60 | 235 | 6.0 | 19.0 | 0.00 | 0.00 | 0.00 | 79 | 1010.2 |
| 20260505231655 | 60 | 181 | 6.0 | 19.0 | 0.00 | 0.00 | 0.00 | 78 | 1010.3 |
| 20260505230533 | 60 | 273 | 7.0 | 21.0 | 0.00 | 0.00 | 0.00 | 78 | 1010.3 |
| 20260505230033 | 60 | 139 | 7.0 | 21.0 | 0.00 | 0.00 | 0.00 | 78 | 1010.3 |
| 20260505225534 | 60 | 132 | 7.0 | 17.0 | 0.00 | 0.00 | 0.00 | 77 | 1010.2 |
| 20260505225035 | 60 | 209 | 6.0 | 20.0 | 0.00 | 0.00 | 0.00 | 77 | 1010.1 |
| 20260505224535 | 61 | 239 | 5.0 | 20.0 | 0.00 | 0.00 | 0.00 | 77 | 1010.2 |
| 20260505224038 | 61 | 102 | 6.0 | 18.0 | 0.00 | 0.00 | 0.00 | 77 | 1010.2 |
| 20260505224033 | 61 | 175 | 5.0 | 16.0 | 0.00 | 0.00 | 0.00 | 77 | 1010.2 |
| 20260505223035 | 61 | 275 | 6.0 | 18.0 | 0.00 | 0.00 | 0.00 | 77 | 1010.2 |
| 20260505222534 | 61 | 225 | 6.0 | 16.0 | 0.00 | 0.00 | 0.00 | 77 | 1010.1 |
| 20260505222034 | 61 | 221 | 6.0 | 21.0 | 0.00 | 0.00 | 0.00 | 77 | 1010.0 |
| 20260505221533 | 61 | 215 | 7.0 | 21.0 | 0.00 | 0.00 | 0.00 | 77 | 1009.9 |
| 20260505221305 | 61 | 247 | 7.0 | 20.0 | 0.00 | 0.00 | 0.00 | 77 | 1010.0 |
| 20260505220536 | 61 | 222 | 6.0 | 20.0 | 0.00 | 0.00 | 0.00 | 77 | 1010.1 |
| 20260505220033 | 61 | 220 | 7.0 | 24.0 | 0.00 | 0.00 | 0.00 | 76 | 1010.1 |
| 20260505220027 | 61 | 238 | 8.0 | 24.0 | 0.00 | 0.00 | 0.00 | 76 | 1009.9 |
| 20260505215018 | 61 | 229 | 7.0 | 18.0 | 0.00 | 0.00 | 0.00 | 76 | 1009.9 |
| 20260505214742 | 61 | 228 | 8.0 | 18.0 | 0.00 | 0.00 | 0.00 | 75 | 1009.8 |
| 20260505214006 | 61 | 246 | 7.0 | 18.0 | 0.00 | 0.00 | 0.00 | 75 | 1009.8 |
| 20260505213500 | 61 | 161 | 6.0 | 16.0 | 0.00 | 0.00 | 0.00 | 75 | 1009.7 |
| 20260505213225 | 62 | 224 | 6.0 | 20.0 | 0.00 | 0.00 | 0.00 | 75 | 1009.6 |
| 20260505212448 | 62 | 197 | 7.0 | 20.0 | 0.00 | 0.00 | 0.00 | 75 | 1009.6 |
| 20260505211942 | 62 | 229 | 7.0 | 25.0 | 0.00 | 0.00 | 0.00 | 75 | 1009.5 |
| 20260505211436 | 62 | 257 | 7.0 | 25.0 | 0.00 | 0.00 | 0.00 | 75 | 1009.4 |
| 20260505210929 | 62 | 235 | 7.0 | 18.0 | 0.00 | 0.00 | 0.00 | 75 | 1009.3 |
| 20260505210424 | 62 | 234 | 8.0 | 27.0 | 0.00 | 0.00 | 0.00 | 75 | 1009.3 |
| 20260505205918 | 62 | 167 | 7.0 | 27.0 | 0.00 | 0.00 | 0.00 | 74 | 1009.4 |
| 20260505205412 | 62 | 135 | 8.0 | 21.0 | 0.00 | 0.00 | 0.00 | 74 | 1009.4 |
| 20260505204906 | 62 | 227 | 7.0 | 21.0 | 0.00 | 0.00 | 0.00 | 73 | 1009.3 |
| 20260505204400 | 62 | 91 | 6.0 | 16.0 | 0.00 | 0.00 | 0.00 | 74 | 1009.5 |
| 20260505203855 | 63 | 222 | 6.0 | 21.0 | 0.00 | 0.00 | 0.00 | 74 | 1009.4 |
| 20260505203348 | 63 | 236 | 5.0 | 21.0 | 0.00 | 0.00 | 0.00 | 74 | 1009.5 |
| 20260505203112 | 63 | 240 | 5.0 | 24.0 | 0.00 | 0.00 | 0.00 | 74 | 1009.5 |
| 20260505202336 | 63 | 205 | 6.0 | 24.0 | 0.00 | 0.00 | 0.00 | 74 | 1009.6 |
| 20260505201830 | 63 | 269 | 6.0 | 17.0 | 0.00 | 0.00 | 0.00 | 75 | 1009.7 |
| 20260505201324 | 63 | 192 | 6.0 | 17.0 | 0.00 | 0.00 | 0.00 | 75 | 1009.7 |
| 20260505201048 | 63 | 240 | 5.0 | 18.0 | 0.00 | 0.00 | 0.00 | 75 | 1009.8 |
| 20260505200313 | 63 | 234 | 4.0 | 18.0 | 0.00 | 0.00 | 0.00 | 75 | 1010.0 |
| 20260505195814 | 63 | 226 | 5.0 | 18.0 | 0.00 | 0.00 | 0.00 | 75 | 1010.1 |
| 20260505195313 | 62 | 215 | 4.0 | 18.0 | 0.00 | 0.00 | 0.00 | 74 | 1010.2 |
| 20260505194814 | 63 | 209 | 4.0 | 13.0 | 0.00 | 0.00 | 0.00 | 74 | 1010.2 |
| 20260505194314 | 63 | 236 | 6.0 | 13.0 | 0.00 | 0.00 | 0.00 | 73 | 1010.4 |
| 20260505193814 | 63 | 136 | 5.0 | 16.0 | 0.00 | 0.00 | 0.00 | 73 | 1010.3 |
| 20260505193314 | 63 | 186 | 4.0 | 16.0 | 0.00 | 0.00 | 0.00 | 74 | 1010.4 |
| 20260505192813 | 64 | 182 | 4.0 | 13.0 | 0.00 | 0.00 | 0.00 | 73 | 1010.4 |
| 20260505192544 | 64 | 164 | 5.0 | 13.0 | 0.00 | 0.00 | 0.00 | 74 | 1010.6 |
| 20260505191814 | 64 | 190 | 6.0 | 14.0 | 0.00 | 0.00 | 0.00 | 75 | 1010.6 |
| 20260505191313 | 63 | 184 | 5.0 | 14.0 | 0.00 | 0.00 | 0.00 | 75 | 1010.7 |
| 20260505190813 | 63 | 125 | 5.0 | 16.0 | 0.00 | 0.00 | 0.00 | 75 | 1010.9 |
| 20260505190547 | 63 | 232 | 6.0 | 16.0 | 0.00 | 0.00 | 0.00 | 75 | 1011.2 |
| 20260505185814 | 63 | 109 | 6.0 | 21.0 | 0.00 | 0.00 | 0.00 | 76 | 1011.2 |
| 20260505185314 | 63 | 174 | 7.0 | 21.0 | 0.00 | 0.00 | 0.00 | 75 | 1011.2 |
| 20260505185047 | 63 | 137 | 6.0 | 16.0 | 0.00 | 0.00 | 0.00 | 75 | 1011.3 |
| 20260505184545 | 63 | 208 | 7.0 | 18.0 | 0.00 | 0.00 | 0.00 | 73 | 1011.3 |
| 20260505184040 | 64 | 211 | 6.0 | 18.0 | 0.00 | 0.00 | 0.00 | 72 | 1011.3 |
| 20260505183309 | 65 | 194 | 4.0 | 10.0 | 0.00 | 0.00 | 0.00 | 74 | 1011.3 |